Year,Month,Day,Hour,Minute,Value (Times are PST for temperature in C)
2009,04,24,00,00,2.90
2009,04,24,00,01,2.90
2009,04,24,00,02,2.80
2009,04,24,00,03,2.80
2009,04,24,00,04,2.80
2009,04,24,00,05,2.70
2009,04,24,00,06,2.70
2009,04,24,00,07,2.60
2009,04,24,00,08,2.60
2009,04,24,00,09,2.60
2009,04,24,00,10,2.60
2009,04,24,00,11,2.60
2009,04,24,00,12,2.60
2009,04,24,00,13,2.70
2009,04,24,00,14,2.80
2009,04,24,00,15,2.80
2009,04,24,00,16,2.80
2009,04,24,00,17,2.80
2009,04,24,00,18,2.80
2009,04,24,00,19,2.80
2009,04,24,00,20,2.80
2009,04,24,00,21,2.80
2009,04,24,00,22,2.80
2009,04,24,00,23,2.90
2009,04,24,00,24,2.90
2009,04,24,00,25,2.90
2009,04,24,00,26,2.90
2009,04,24,00,27,3.00
2009,04,24,00,28,3.00
2009,04,24,00,29,3.00
2009,04,24,00,30,3.10
2009,04,24,00,31,3.10
2009,04,24,00,32,3.00
2009,04,24,00,33,3.00
2009,04,24,00,34,3.00
2009,04,24,00,35,2.90
2009,04,24,00,36,2.90
2009,04,24,00,37,2.90
2009,04,24,00,38,2.80
2009,04,24,00,39,2.80
2009,04,24,00,40,2.80
2009,04,24,00,41,2.80
2009,04,24,00,42,2.80
2009,04,24,00,43,2.80
2009,04,24,00,44,2.80
2009,04,24,00,45,2.80
2009,04,24,00,46,2.80
2009,04,24,00,47,2.80
2009,04,24,00,48,2.80
2009,04,24,00,49,2.80
2009,04,24,00,50,2.80
2009,04,24,00,51,2.80
2009,04,24,00,52,2.80
2009,04,24,00,53,2.80
2009,04,24,00,54,2.90
2009,04,24,00,55,2.90
2009,04,24,00,56,2.90
2009,04,24,00,57,3.00
2009,04,24,00,58,3.00
2009,04,24,00,59,3.10
2009,04,24,01,00,3.10
2009,04,24,01,01,3.10
2009,04,24,01,02,3.10
2009,04,24,01,03,3.10
2009,04,24,01,04,3.10
2009,04,24,01,05,3.10
2009,04,24,01,06,3.10
2009,04,24,01,07,3.10
2009,04,24,01,08,3.10
2009,04,24,01,09,3.10
2009,04,24,01,10,3.10
2009,04,24,01,11,3.10
2009,04,24,01,12,3.10
2009,04,24,01,13,3.10
2009,04,24,01,14,3.10
2009,04,24,01,15,3.10
2009,04,24,01,16,3.10
2009,04,24,01,17,3.10
2009,04,24,01,18,3.10
2009,04,24,01,19,3.10
2009,04,24,01,20,3.10
2009,04,24,01,21,3.10
2009,04,24,01,22,3.10
2009,04,24,01,23,3.00
2009,04,24,01,24,3.00
2009,04,24,01,25,3.00
2009,04,24,01,26,3.10
2009,04,24,01,27,3.10
2009,04,24,01,28,3.10
2009,04,24,01,29,3.10
2009,04,24,01,30,3.10
2009,04,24,01,31,3.10
2009,04,24,01,32,3.10
2009,04,24,01,33,3.10
2009,04,24,01,34,3.10
2009,04,24,01,35,3.00
2009,04,24,01,36,3.00
2009,04,24,01,37,2.90
2009,04,24,01,38,3.00
2009,04,24,01,39,2.90
2009,04,24,01,40,2.90
2009,04,24,01,41,2.90
2009,04,24,01,42,2.90
2009,04,24,01,43,2.90
2009,04,24,01,44,2.90
2009,04,24,01,45,2.90
2009,04,24,01,46,2.80
2009,04,24,01,47,2.80
2009,04,24,01,48,2.90
2009,04,24,01,49,2.90
2009,04,24,01,50,2.90
2009,04,24,01,51,2.90
2009,04,24,01,52,2.90
2009,04,24,01,53,2.90
2009,04,24,01,54,2.90
2009,04,24,01,55,3.00
2009,04,24,01,56,3.00
2009,04,24,01,57,3.00
2009,04,24,01,58,3.00
2009,04,24,01,59,3.00
2009,04,24,02,00,3.00
2009,04,24,02,01,2.90
2009,04,24,02,02,2.90
2009,04,24,02,03,2.90
2009,04,24,02,04,2.90
2009,04,24,02,05,2.90
2009,04,24,02,06,3.00
2009,04,24,02,07,3.00
2009,04,24,02,08,3.00
2009,04,24,02,09,3.00
2009,04,24,02,10,3.00
2009,04,24,02,11,3.10
2009,04,24,02,12,3.10
2009,04,24,02,13,3.10
2009,04,24,02,14,3.10
2009,04,24,02,15,3.10
2009,04,24,02,16,3.10
2009,04,24,02,17,3.10
2009,04,24,02,18,3.00
2009,04,24,02,19,2.90
2009,04,24,02,20,2.80
2009,04,24,02,21,2.80
2009,04,24,02,22,2.80
2009,04,24,02,23,2.70
2009,04,24,02,24,2.70
2009,04,24,02,25,2.60
2009,04,24,02,26,2.60
2009,04,24,02,27,2.60
2009,04,24,02,28,2.50
2009,04,24,02,29,2.50
2009,04,24,02,30,2.50
2009,04,24,02,31,2.50
2009,04,24,02,32,2.50
2009,04,24,02,33,2.40
2009,04,24,02,34,2.40
2009,04,24,02,35,2.40
2009,04,24,02,36,2.30
2009,04,24,02,37,2.30
2009,04,24,02,38,2.30
2009,04,24,02,39,2.30
2009,04,24,02,40,2.20
2009,04,24,02,41,2.20
2009,04,24,02,42,2.30
2009,04,24,02,43,2.30
2009,04,24,02,44,2.30
2009,04,24,02,45,2.20
2009,04,24,02,46,2.20
2009,04,24,02,47,2.20
2009,04,24,02,48,2.20
2009,04,24,02,49,2.20
2009,04,24,02,50,2.20
2009,04,24,02,51,2.20
2009,04,24,02,52,2.20
2009,04,24,02,53,2.20
2009,04,24,02,54,2.20
2009,04,24,02,55,2.20
2009,04,24,02,56,2.20
2009,04,24,02,57,2.20
2009,04,24,02,58,2.10
2009,04,24,02,59,2.10
2009,04,24,03,00,2.10
2009,04,24,03,01,2.10
2009,04,24,03,02,2.10
2009,04,24,04,02,1.70
2009,04,24,04,03,1.60
2009,04,24,04,04,1.60
2009,04,24,04,05,1.50
2009,04,24,04,06,1.40
2009,04,24,04,07,1.30
2009,04,24,04,08,1.30
2009,04,24,04,09,1.30
2009,04,24,04,10,1.30
2009,04,24,04,11,1.30
2009,04,24,04,12,1.30
2009,04,24,04,13,1.30
2009,04,24,04,14,1.30
2009,04,24,04,15,1.30
2009,04,24,04,16,1.30
2009,04,24,04,17,1.30
2009,04,24,04,18,1.30
2009,04,24,04,19,1.30
2009,04,24,04,20,1.30
2009,04,24,04,21,1.30
2009,04,24,04,22,1.30
2009,04,24,04,23,1.30
2009,04,24,04,24,1.30
2009,04,24,04,25,1.30
2009,04,24,04,26,1.20
2009,04,24,04,27,1.20
2009,04,24,04,28,1.10
2009,04,24,04,29,1.10
2009,04,24,04,30,1.10
2009,04,24,04,31,1.00
2009,04,24,04,32,1.00
2009,04,24,04,33,1.00
2009,04,24,04,34,0.90
2009,04,24,04,35,0.90
2009,04,24,04,36,0.90
2009,04,24,04,37,0.80
2009,04,24,04,38,0.80
2009,04,24,04,39,0.80
2009,04,24,04,40,0.80
2009,04,24,04,41,0.80
2009,04,24,04,42,0.80
2009,04,24,04,43,0.80
2009,04,24,04,44,0.80
2009,04,24,04,45,0.90
2009,04,24,04,46,0.90
2009,04,24,04,47,0.90
2009,04,24,04,48,0.90
2009,04,24,04,49,1.00
2009,04,24,04,50,1.00
2009,04,24,04,51,1.00
2009,04,24,04,52,1.00
2009,04,24,04,53,1.00
2009,04,24,04,54,1.00
2009,04,24,04,55,0.90
2009,04,24,04,56,0.90
2009,04,24,04,57,0.90
2009,04,24,04,58,0.90
2009,04,24,04,59,0.80
2009,04,24,05,00,0.80
2009,04,24,05,01,0.80
2009,04,24,05,02,0.80
2009,04,24,05,03,0.80
2009,04,24,05,04,0.80
2009,04,24,05,05,0.80
2009,04,24,05,06,0.80
2009,04,24,05,07,0.80
2009,04,24,05,08,0.70
2009,04,24,05,09,0.70
2009,04,24,05,10,0.60
2009,04,24,05,11,0.60
2009,04,24,05,12,0.50
2009,04,24,05,13,0.40
2009,04,24,05,14,0.40
2009,04,24,05,15,0.30
2009,04,24,05,16,0.30
2009,04,24,05,17,0.20
2009,04,24,05,18,0.20
2009,04,24,05,19,0.20
2009,04,24,05,20,0.20
2009,04,24,05,21,0.20
2009,04,24,05,22,0.20
2009,04,24,05,23,0.20
2009,04,24,05,24,0.20
2009,04,24,05,25,0.20
2009,04,24,05,26,0.20
2009,04,24,05,27,0.20
2009,04,24,05,28,0.20
2009,04,24,05,29,0.20
2009,04,24,05,30,0.10
2009,04,24,05,31,0.10
2009,04,24,05,32,0.10
2009,04,24,05,33,0.10
2009,04,24,05,34,0.10
2009,04,24,05,35,0.00
2009,04,24,05,36,0.00
2009,04,24,05,37,0.00
2009,04,24,05,38,0.00
2009,04,24,05,39,0.00
2009,04,24,05,40,0.00
2009,04,24,05,41,-0.10
2009,04,24,05,42,-0.10
2009,04,24,05,43,-0.10
2009,04,24,05,44,-0.10
2009,04,24,05,45,-0.10
2009,04,24,05,46,-0.10
2009,04,24,05,47,-0.10
2009,04,24,05,48,-0.20
2009,04,24,05,49,-0.20
2009,04,24,05,50,-0.20
2009,04,24,05,51,-0.10
2009,04,24,05,52,-0.10
2009,04,24,05,53,-0.10
2009,04,24,05,54,-0.10
2009,04,24,05,55,-0.10
2009,04,24,05,56,-0.10
2009,04,24,05,57,-0.10
2009,04,24,05,58,-0.10
2009,04,24,05,59,-0.20
2009,04,24,06,00,-0.10
2009,04,24,06,01,-0.10
2009,04,24,06,02,-0.10
2009,04,24,06,03,-0.10
2009,04,24,06,04,-0.10
2009,04,24,06,05,-0.10
2009,04,24,06,06,-0.10
2009,04,24,06,07,-0.10
2009,04,24,06,08,-0.20
2009,04,24,06,09,-0.20
2009,04,24,06,10,-0.20
2009,04,24,06,11,-0.20
2009,04,24,06,12,-0.20
2009,04,24,06,13,-0.20
2009,04,24,06,14,-0.30
2009,04,24,06,15,-0.30
2009,04,24,06,16,-0.30
2009,04,24,06,17,-0.30
2009,04,24,06,18,-0.30
2009,04,24,06,19,-0.30
2009,04,24,06,20,-0.30
2009,04,24,06,21,-0.30
2009,04,24,06,22,-0.40
2009,04,24,06,23,-0.40
2009,04,24,06,24,-0.40
2009,04,24,06,25,-0.40
2009,04,24,06,26,-0.40
2009,04,24,06,27,-0.40
2009,04,24,06,28,-0.40
2009,04,24,06,29,-0.40
2009,04,24,06,30,-0.40
2009,04,24,06,31,-0.40
2009,04,24,06,32,-0.40
2009,04,24,06,33,-0.40
2009,04,24,06,34,-0.40
2009,04,24,06,35,-0.40
2009,04,24,06,36,-0.40
2009,04,24,06,37,-0.40
2009,04,24,06,38,-0.40
2009,04,24,06,39,-0.30
2009,04,24,06,40,-0.30
2009,04,24,06,41,-0.30
2009,04,24,06,42,-0.30
2009,04,24,06,43,-0.30
2009,04,24,06,44,-0.30
2009,04,24,06,45,-0.30
2009,04,24,06,46,-0.30
2009,04,24,06,47,-0.30
2009,04,24,06,48,-0.30
2009,04,24,06,49,-0.30
2009,04,24,06,50,-0.30
2009,04,24,06,51,-0.20
2009,04,24,06,52,-0.20
2009,04,24,06,53,-0.20
2009,04,24,06,54,-0.10
2009,04,24,06,55,-0.10
2009,04,24,06,56,-0.10
2009,04,24,06,57,0.00
2009,04,24,06,58,0.00
2009,04,24,06,59,0.10
2009,04,24,07,00,0.10
2009,04,24,07,01,0.10
2009,04,24,07,02,0.20
2009,04,24,07,03,0.20
2009,04,24,07,04,0.20
2009,04,24,07,05,0.20
2009,04,24,07,06,0.30
2009,04,24,07,07,0.30
2009,04,24,07,08,0.30
2009,04,24,07,09,0.40
2009,04,24,07,10,0.40
2009,04,24,07,11,0.50
2009,04,24,07,12,0.50
2009,04,24,07,13,0.60
2009,04,24,07,14,0.70
2009,04,24,07,15,0.70
2009,04,24,07,16,0.80
2009,04,24,07,17,0.80
2009,04,24,07,18,0.90
2009,04,24,07,19,0.90
2009,04,24,07,20,1.00
2009,04,24,07,21,1.00
2009,04,24,07,22,1.00
2009,04,24,07,23,1.10
2009,04,24,07,24,1.20
2009,04,24,07,25,1.20
2009,04,24,07,26,1.30
2009,04,24,07,27,1.30
2009,04,24,07,28,1.30
2009,04,24,07,29,1.40
2009,04,24,07,30,1.50
2009,04,24,07,31,1.60
2009,04,24,07,32,1.70
2009,04,24,07,33,1.80
2009,04,24,07,34,1.90
2009,04,24,07,35,2.00
2009,04,24,07,36,2.10
2009,04,24,07,37,2.20
2009,04,24,07,38,2.30
2009,04,24,07,39,2.50
2009,04,24,07,40,2.60
2009,04,24,07,41,2.80
2009,04,24,07,42,2.90
2009,04,24,07,43,3.00
2009,04,24,07,44,3.10
2009,04,24,07,45,3.20
2009,04,24,07,46,3.30
2009,04,24,07,47,3.40
2009,04,24,07,48,3.50
2009,04,24,07,49,3.60
2009,04,24,07,50,3.70
2009,04,24,07,51,3.80
2009,04,24,07,52,3.80
2009,04,24,07,53,3.90
2009,04,24,07,54,4.00
2009,04,24,07,55,4.10
2009,04,24,07,56,4.10
2009,04,24,07,57,4.10
2009,04,24,07,58,4.20
2009,04,24,07,59,4.20
2009,04,24,08,00,4.30
2009,04,24,08,01,4.30
2009,04,24,08,02,4.40
2009,04,24,08,03,4.40
2009,04,24,08,04,4.50
2009,04,24,08,05,4.60
2009,04,24,08,06,4.70
2009,04,24,08,07,4.80
2009,04,24,08,08,4.80
2009,04,24,08,09,4.90
2009,04,24,08,10,5.00
2009,04,24,08,11,5.10
2009,04,24,08,12,5.20
2009,04,24,08,13,5.30
2009,04,24,08,14,5.40
2009,04,24,08,15,5.60
2009,04,24,08,16,5.70
2009,04,24,08,17,5.90
2009,04,24,08,18,6.00
2009,04,24,08,19,6.10
2009,04,24,08,20,6.30
2009,04,24,08,21,6.40
2009,04,24,08,22,6.50
2009,04,24,08,23,6.70
2009,04,24,08,24,6.80
2009,04,24,08,25,7.00
2009,04,24,08,26,7.20
2009,04,24,08,27,7.30
2009,04,24,08,28,7.50
2009,04,24,08,29,7.60
2009,04,24,08,30,7.70
2009,04,24,08,31,7.70
2009,04,24,08,32,7.80
2009,04,24,08,33,7.90
2009,04,24,08,34,8.00
2009,04,24,08,35,8.10
2009,04,24,08,36,8.20
2009,04,24,08,37,8.20
2009,04,24,08,38,8.30
2009,04,24,08,39,8.30
2009,04,24,08,40,8.40
2009,04,24,08,41,8.50
2009,04,24,08,42,8.60
2009,04,24,08,43,8.60
2009,04,24,08,44,8.70
2009,04,24,08,45,8.80
2009,04,24,08,46,8.90
2009,04,24,08,47,9.00
2009,04,24,08,48,9.10
2009,04,24,08,49,9.00
2009,04,24,08,50,9.00
2009,04,24,08,51,8.90
2009,04,24,08,52,8.80
2009,04,24,08,53,8.70
2009,04,24,08,54,8.70
2009,04,24,08,55,8.70
2009,04,24,08,56,8.80
2009,04,24,08,57,8.80
2009,04,24,08,58,8.90
2009,04,24,08,59,8.90
2009,04,24,09,00,8.90
2009,04,24,09,01,8.90
2009,04,24,09,02,8.90
2009,04,24,09,03,8.80
2009,04,24,09,04,8.80
2009,04,24,09,05,8.70
2009,04,24,09,06,8.60
2009,04,24,09,07,8.60
2009,04,24,09,08,8.60
2009,04,24,09,09,8.70
2009,04,24,09,10,8.70
2009,04,24,09,11,8.70
2009,04,24,09,12,8.80
2009,04,24,09,13,8.80
2009,04,24,09,14,9.00
2009,04,24,09,15,9.10
2009,04,24,09,16,9.20
2009,04,24,09,17,9.40
2009,04,24,09,18,9.50
2009,04,24,09,19,9.60
2009,04,24,09,20,9.70
2009,04,24,09,21,9.80
2009,04,24,09,22,9.90
2009,04,24,09,23,10.00
2009,04,24,09,24,10.00
2009,04,24,09,25,10.10
2009,04,24,09,26,10.10
2009,04,24,09,27,10.10
2009,04,24,09,28,10.10
2009,04,24,09,29,10.10
2009,04,24,09,30,10.10
2009,04,24,09,31,10.00
2009,04,24,09,32,10.00
2009,04,24,09,33,10.00
2009,04,24,09,34,10.00
2009,04,24,09,35,10.10
2009,04,24,09,36,10.10
2009,04,24,09,37,10.20
2009,04,24,09,38,10.10
2009,04,24,09,39,10.20
2009,04,24,09,40,10.20
2009,04,24,09,41,10.30
2009,04,24,09,42,10.30
2009,04,24,09,43,10.20
2009,04,24,09,44,10.00
2009,04,24,09,45,9.90
2009,04,24,09,46,9.90
2009,04,24,09,47,10.00
2009,04,24,09,48,10.10
2009,04,24,09,49,10.10
2009,04,24,09,50,10.20
2009,04,24,09,51,10.20
2009,04,24,09,52,10.20
2009,04,24,09,53,10.10
2009,04,24,09,54,9.90
2009,04,24,09,55,9.70
2009,04,24,09,56,9.60
2009,04,24,09,57,9.50
2009,04,24,09,58,9.50
2009,04,24,09,59,9.50
2009,04,24,10,00,9.60
2009,04,24,10,01,9.70
2009,04,24,10,02,9.80
2009,04,24,10,03,9.90
2009,04,24,10,04,10.10
2009,04,24,10,05,10.10
2009,04,24,10,06,10.20
2009,04,24,10,07,10.20
2009,04,24,10,08,10.20
2009,04,24,10,09,10.20
2009,04,24,10,10,10.20
2009,04,24,10,11,10.10
2009,04,24,10,12,10.20
2009,04,24,10,13,10.20
2009,04,24,10,14,10.30
2009,04,24,10,15,10.30
2009,04,24,10,16,10.40
2009,04,24,10,17,10.40
2009,04,24,10,18,10.40
2009,04,24,10,19,10.40
2009,04,24,10,20,10.40
2009,04,24,10,21,10.40
2009,04,24,10,22,10.40
2009,04,24,10,23,10.40
2009,04,24,10,24,10.40
2009,04,24,10,25,10.30
2009,04,24,10,26,10.30
2009,04,24,10,27,10.30
2009,04,24,10,28,10.40
2009,04,24,10,29,10.50
2009,04,24,10,30,10.60
2009,04,24,10,31,10.70
2009,04,24,10,32,10.80
2009,04,24,10,33,10.80
2009,04,24,10,34,10.80
2009,04,24,10,35,10.70
2009,04,24,10,36,10.70
2009,04,24,10,37,10.60
2009,04,24,10,38,10.70
2009,04,24,10,39,10.90
2009,04,24,10,40,10.90
2009,04,24,10,41,10.90
2009,04,24,10,42,10.90
2009,04,24,10,43,11.00
2009,04,24,10,44,11.10
2009,04,24,10,45,11.10
2009,04,24,10,46,11.10
2009,04,24,10,47,11.10
2009,04,24,10,48,11.20
2009,04,24,10,49,11.20
2009,04,24,10,50,11.20
2009,04,24,10,51,10.90
2009,04,24,10,52,10.70
2009,04,24,10,53,10.50
2009,04,24,10,54,10.40
2009,04,24,10,55,10.40
2009,04,24,10,56,10.50
2009,04,24,10,57,10.60
2009,04,24,10,58,10.70
2009,04,24,10,59,10.90
2009,04,24,11,00,10.90
2009,04,24,11,01,11.00
2009,04,24,11,02,11.00
2009,04,24,11,03,11.00
2009,04,24,11,04,10.80
2009,04,24,11,05,10.80
2009,04,24,11,06,10.80
2009,04,24,11,07,10.70
2009,04,24,11,08,10.70
2009,04,24,11,09,10.80
2009,04,24,11,10,10.90
2009,04,24,11,11,11.00
2009,04,24,11,12,11.00
2009,04,24,11,13,11.10
2009,04,24,11,14,11.10
2009,04,24,11,15,11.20
2009,04,24,11,16,11.20
2009,04,24,11,17,11.30
2009,04,24,11,18,11.30
2009,04,24,11,19,11.40
2009,04,24,11,20,11.40
2009,04,24,11,21,11.30
2009,04,24,11,22,11.00
2009,04,24,11,23,10.80
2009,04,24,11,24,10.80
2009,04,24,11,25,10.90
2009,04,24,11,26,11.00
2009,04,24,11,27,11.10
2009,04,24,11,28,11.20
2009,04,24,11,29,11.10
2009,04,24,11,30,11.00
2009,04,24,11,31,10.90
2009,04,24,11,32,10.80
2009,04,24,11,33,10.80
2009,04,24,11,34,10.90
2009,04,24,11,35,11.00
2009,04,24,11,36,11.10
2009,04,24,11,37,11.20
2009,04,24,11,38,11.30
2009,04,24,11,39,11.40
2009,04,24,11,40,11.50
2009,04,24,11,41,11.30
2009,04,24,11,42,11.30
2009,04,24,11,43,11.30
2009,04,24,11,44,11.30
2009,04,24,11,45,11.30
2009,04,24,11,46,11.30
2009,04,24,11,47,11.30
2009,04,24,11,48,11.20
2009,04,24,11,49,11.20
2009,04,24,11,50,11.20
2009,04,24,11,51,11.30
2009,04,24,11,52,11.40
2009,04,24,11,53,11.50
2009,04,24,11,54,11.50
2009,04,24,11,55,11.60
2009,04,24,11,56,11.50
2009,04,24,11,57,11.40
2009,04,24,11,58,11.50
2009,04,24,11,59,11.50
2009,04,24,12,00,11.60
2009,04,24,12,01,11.60
2009,04,24,12,02,11.70
2009,04,24,12,03,11.80
2009,04,24,12,04,11.90
2009,04,24,12,05,12.10
2009,04,24,12,06,12.00
2009,04,24,12,07,12.00
2009,04,24,12,08,11.80
2009,04,24,12,09,11.50
2009,04,24,12,10,11.40
2009,04,24,12,11,11.30
2009,04,24,12,12,11.30
2009,04,24,12,13,11.40
2009,04,24,12,14,11.40
2009,04,24,12,15,11.50
2009,04,24,12,16,11.60
2009,04,24,12,17,11.70
2009,04,24,12,18,11.70
2009,04,24,12,19,11.80
2009,04,24,12,20,11.80
2009,04,24,12,21,11.80
2009,04,24,12,22,11.80
2009,04,24,12,23,11.90
2009,04,24,12,24,12.00
2009,04,24,12,25,12.00
2009,04,24,12,26,11.90
2009,04,24,12,27,12.00
2009,04,24,12,28,11.90
2009,04,24,12,29,11.80
2009,04,24,12,30,11.70
2009,04,24,12,31,11.60
2009,04,24,12,32,11.50
2009,04,24,12,33,11.50
2009,04,24,12,34,11.50
2009,04,24,12,35,11.60
2009,04,24,12,36,11.70
2009,04,24,12,37,11.80
2009,04,24,12,38,11.80
2009,04,24,12,39,11.90
2009,04,24,12,40,12.00
2009,04,24,12,41,12.10
2009,04,24,12,42,12.20
2009,04,24,12,43,12.40
2009,04,24,12,44,12.50
2009,04,24,12,45,12.60
2009,04,24,12,46,12.70
2009,04,24,12,47,12.80
2009,04,24,12,48,12.80
2009,04,24,12,49,12.70
2009,04,24,12,50,12.70
2009,04,24,12,51,12.80
2009,04,24,12,52,12.80
2009,04,24,12,53,12.80
2009,04,24,12,54,12.70
2009,04,24,12,55,12.70
2009,04,24,12,56,12.60
2009,04,24,12,57,12.50
2009,04,24,12,58,12.40
2009,04,24,12,59,12.50
2009,04,24,13,00,12.60
2009,04,24,13,01,12.70
2009,04,24,13,02,12.80
2009,04,24,13,03,12.80
2009,04,24,13,04,12.70
2009,04,24,13,05,12.60
2009,04,24,13,06,12.50
2009,04,24,13,07,12.30
2009,04,24,13,08,12.20
2009,04,24,13,09,12.20
2009,04,24,13,10,12.10
2009,04,24,13,11,12.20
2009,04,24,13,12,12.20
2009,04,24,13,13,12.30
2009,04,24,13,14,12.40
2009,04,24,13,15,12.40
2009,04,24,13,16,12.20
2009,04,24,13,17,12.10
2009,04,24,13,18,12.00
2009,04,24,13,19,12.10
2009,04,24,13,20,12.20
2009,04,24,13,21,12.40
2009,04,24,13,22,12.60
2009,04,24,13,23,12.80
2009,04,24,13,24,12.90
2009,04,24,13,25,12.90
2009,04,24,13,26,12.80
2009,04,24,13,27,12.80
2009,04,24,13,28,12.70
2009,04,24,13,29,12.70
2009,04,24,13,30,12.70
2009,04,24,13,31,12.80
2009,04,24,13,32,12.80
2009,04,24,13,33,12.80
2009,04,24,13,34,12.80
2009,04,24,13,35,12.90
2009,04,24,13,36,13.00
2009,04,24,13,37,13.00
2009,04,24,13,38,13.10
2009,04,24,13,39,13.10
2009,04,24,13,40,13.20
2009,04,24,13,41,13.20
2009,04,24,13,42,13.30
2009,04,24,13,43,13.40
2009,04,24,13,44,13.50
2009,04,24,13,45,13.70
2009,04,24,13,46,13.70
2009,04,24,13,47,13.60
2009,04,24,13,48,13.40
2009,04,24,13,49,13.30
2009,04,24,13,50,13.30
2009,04,24,13,51,13.20
2009,04,24,13,52,13.20
2009,04,24,13,53,13.10
2009,04,24,13,54,13.00
2009,04,24,13,55,12.90
2009,04,24,13,56,12.90
2009,04,24,13,57,13.00
2009,04,24,13,58,13.10
2009,04,24,13,59,13.20
2009,04,24,14,00,13.20
2009,04,24,14,01,13.30
2009,04,24,14,02,13.40
2009,04,24,14,03,13.50
2009,04,24,14,04,13.50
2009,04,24,14,05,13.60
2009,04,24,14,06,13.80
2009,04,24,14,07,13.90
2009,04,24,14,08,13.90
2009,04,24,14,09,13.90
2009,04,24,14,10,13.90
2009,04,24,14,11,13.80
2009,04,24,14,12,13.80
2009,04,24,14,13,13.70
2009,04,24,14,14,13.70
2009,04,24,14,15,13.70
2009,04,24,14,16,13.70
2009,04,24,14,17,13.90
2009,04,24,14,18,14.00
2009,04,24,14,19,14.10
2009,04,24,14,20,14.10
2009,04,24,14,21,13.90
2009,04,24,14,22,13.60
2009,04,24,14,23,13.30
2009,04,24,14,24,13.00
2009,04,24,14,25,12.80
2009,04,24,14,26,12.60
2009,04,24,14,27,12.60
2009,04,24,14,28,12.60
2009,04,24,14,29,12.70
2009,04,24,14,30,12.90
2009,04,24,14,31,13.00
2009,04,24,14,32,13.10
2009,04,24,14,33,13.00
2009,04,24,14,34,12.80
2009,04,24,14,35,12.80
2009,04,24,14,36,12.80
2009,04,24,14,37,12.80
2009,04,24,14,38,12.90
2009,04,24,14,39,13.10
2009,04,24,14,40,13.20
2009,04,24,14,41,13.10
2009,04,24,14,42,13.10
2009,04,24,14,43,13.10
2009,04,24,14,44,13.10
2009,04,24,14,45,13.10
2009,04,24,14,46,13.00
2009,04,24,14,47,12.90
2009,04,24,14,48,12.90
2009,04,24,14,49,12.90
2009,04,24,14,50,12.90
2009,04,24,14,51,13.00
2009,04,24,14,52,13.10
2009,04,24,14,53,13.10
2009,04,24,14,54,13.10
2009,04,24,14,55,13.10
2009,04,24,14,56,13.10
2009,04,24,14,57,13.00
2009,04,24,14,58,13.00
2009,04,24,14,59,13.00
2009,04,24,15,00,12.90
2009,04,24,15,01,12.80
2009,04,24,15,02,12.70
2009,04,24,15,03,12.60
2009,04,24,15,04,12.60
2009,04,24,15,05,12.60
2009,04,24,15,06,12.60
2009,04,24,15,07,12.70
2009,04,24,15,08,12.70
2009,04,24,15,09,12.70
2009,04,24,15,10,12.70
2009,04,24,15,11,12.70
2009,04,24,15,12,12.70
2009,04,24,15,13,12.80
2009,04,24,15,14,12.80
2009,04,24,15,15,12.80
2009,04,24,15,16,12.80
2009,04,24,15,17,12.80
2009,04,24,15,18,12.80
2009,04,24,15,19,12.90
2009,04,24,15,20,12.90
2009,04,24,15,21,12.80
2009,04,24,15,22,12.80
2009,04,24,15,23,12.80
2009,04,24,15,24,12.80
2009,04,24,15,25,12.80
2009,04,24,15,26,12.80
2009,04,24,15,27,12.80
2009,04,24,15,28,12.80
2009,04,24,15,29,12.90
2009,04,24,15,30,12.90
2009,04,24,15,31,12.90
2009,04,24,15,32,12.80
2009,04,24,15,33,12.70
2009,04,24,15,34,12.70
2009,04,24,15,35,12.60
2009,04,24,15,36,12.50
2009,04,24,15,37,12.50
2009,04,24,15,38,12.50
2009,04,24,15,39,12.50
2009,04,24,15,40,12.60
2009,04,24,15,41,12.70
2009,04,24,15,42,12.90
2009,04,24,15,43,13.00
2009,04,24,15,44,13.20
2009,04,24,15,45,13.40
2009,04,24,15,46,13.50
2009,04,24,15,47,13.60
2009,04,24,15,48,13.70
2009,04,24,15,49,13.80
2009,04,24,15,50,13.80
2009,04,24,15,51,13.80
2009,04,24,15,52,13.80
2009,04,24,15,53,13.70
2009,04,24,15,54,13.50
2009,04,24,15,55,13.30
2009,04,24,15,56,13.20
2009,04,24,15,57,13.20
2009,04,24,15,58,13.20
2009,04,24,15,59,13.30
2009,04,24,16,00,13.30
2009,04,24,16,01,13.30
2009,04,24,16,02,13.10
2009,04,24,16,03,13.00
2009,04,24,16,04,12.90
2009,04,24,16,05,12.80
2009,04,24,16,06,12.70
2009,04,24,16,07,12.70
2009,04,24,16,08,12.80
2009,04,24,16,09,12.90
2009,04,24,16,10,13.00
2009,04,24,16,11,12.90
2009,04,24,16,12,12.90
2009,04,24,16,13,13.00
2009,04,24,16,14,13.00
2009,04,24,16,15,13.00
2009,04,24,16,16,13.00
2009,04,24,16,17,12.90
2009,04,24,16,18,12.90
2009,04,24,16,19,13.00
2009,04,24,16,20,13.00
2009,04,24,16,21,13.00
2009,04,24,16,22,12.90
2009,04,24,16,23,12.90
2009,04,24,16,24,13.10
2009,04,24,16,25,13.20
2009,04,24,16,26,13.40
2009,04,24,16,27,13.50
2009,04,24,16,28,13.60
2009,04,24,16,29,13.50
2009,04,24,16,30,13.40
2009,04,24,16,31,13.40
2009,04,24,16,32,13.30
2009,04,24,16,33,13.30
2009,04,24,16,34,13.30
2009,04,24,16,35,13.30
2009,04,24,16,36,13.30
2009,04,24,16,37,13.30
2009,04,24,16,38,13.30
2009,04,24,16,39,13.40
2009,04,24,16,40,13.40
2009,04,24,16,41,13.40
2009,04,24,16,42,13.40
2009,04,24,16,43,13.40
2009,04,24,16,44,13.40
2009,04,24,16,45,13.30
2009,04,24,16,46,13.30
2009,04,24,16,47,13.40
2009,04,24,16,48,13.60
2009,04,24,16,49,13.60
2009,04,24,16,50,13.60
2009,04,24,16,51,13.60
2009,04,24,16,52,13.60
2009,04,24,16,53,13.70
2009,04,24,16,54,13.70
2009,04,24,16,55,13.70
2009,04,24,16,56,13.70
2009,04,24,16,57,13.70
2009,04,24,16,58,13.70
2009,04,24,16,59,13.70
2009,04,24,17,00,13.70
2009,04,24,17,01,13.70
2009,04,24,17,02,13.80
2009,04,24,17,03,13.80
2009,04,24,17,04,13.70
2009,04,24,17,05,13.60
2009,04,24,17,06,13.60
2009,04,24,17,07,13.60
2009,04,24,17,08,13.60
2009,04,24,17,09,13.60
2009,04,24,17,10,13.60
2009,04,24,17,11,13.60
2009,04,24,17,12,13.60
2009,04,24,17,13,13.50
2009,04,24,17,14,13.40
2009,04,24,17,15,13.40
2009,04,24,17,16,13.30
2009,04,24,17,17,13.30
2009,04,24,17,18,13.30
2009,04,24,17,19,13.20
2009,04,24,17,20,13.30
2009,04,24,17,21,13.30
2009,04,24,17,22,13.20
2009,04,24,17,23,13.20
2009,04,24,17,24,13.20
2009,04,24,17,25,13.10
2009,04,24,17,26,13.10
2009,04,24,17,27,13.10
2009,04,24,17,28,13.10
2009,04,24,17,29,13.10
2009,04,24,17,30,13.10
2009,04,24,17,31,13.10
2009,04,24,17,32,13.10
2009,04,24,17,33,13.10
2009,04,24,17,34,13.10
2009,04,24,17,35,13.00
2009,04,24,17,36,13.00
2009,04,24,17,37,13.00
2009,04,24,17,38,13.00
2009,04,24,17,39,13.10
2009,04,24,17,40,13.10
2009,04,24,17,41,13.10
2009,04,24,17,42,13.10
2009,04,24,17,43,13.10
2009,04,24,17,44,13.20
2009,04,24,17,45,13.20
2009,04,24,17,46,13.20
2009,04,24,17,47,13.20
2009,04,24,17,48,13.20
2009,04,24,17,49,13.20
2009,04,24,17,50,13.10
2009,04,24,17,51,13.10
2009,04,24,17,52,13.10
2009,04,24,17,53,13.10
2009,04,24,17,54,13.10
2009,04,24,17,55,13.00
2009,04,24,17,56,13.00
2009,04,24,17,57,12.90
2009,04,24,17,58,12.80
2009,04,24,17,59,12.80
2009,04,24,18,00,12.80
2009,04,24,18,01,12.70
2009,04,24,18,02,12.70
2009,04,24,18,03,12.70
2009,04,24,18,04,12.70
2009,04,24,18,05,12.70
2009,04,24,18,06,12.70
2009,04,24,18,07,12.70
2009,04,24,18,08,12.70
2009,04,24,18,09,12.70
2009,04,24,18,10,12.70
2009,04,24,18,11,12.60
2009,04,24,18,12,12.60
2009,04,24,18,13,12.60
2009,04,24,18,14,12.60
2009,04,24,18,15,12.60
2009,04,24,18,16,12.60
2009,04,24,18,17,12.60
2009,04,24,18,18,12.60
2009,04,24,18,19,12.60
2009,04,24,18,20,12.60
2009,04,24,18,21,12.60
2009,04,24,18,22,12.60
2009,04,24,18,23,12.60
2009,04,24,18,24,12.60
2009,04,24,18,25,12.60
2009,04,24,18,26,12.50
2009,04,24,18,27,12.50
2009,04,24,18,28,12.50
2009,04,24,18,29,12.40
2009,04,24,18,30,12.40
2009,04,24,18,31,12.40
2009,04,24,18,32,12.40
2009,04,24,18,33,12.40
2009,04,24,18,34,12.40
2009,04,24,18,35,12.40
2009,04,24,18,36,12.40
2009,04,24,18,37,12.40